Volver al catálogo

SL-3 R/B

ActivoPO
NORAD 8800·ROCKET BODY·🇷🇺 Russia

Lanzado Apr 7, 1976 desde Plesetsk Cosmodrome

Loading…

Próximos Pases (próximas 24 horas)

TLE

ActualizadoSource: Space-Track

Época: Sep 14, 2026, 17:54 UTC

1 08800U 76032B   26257.74616621 -.00000017  00000-0 -15612-4 0  9998
2 08800  81.2526 171.4022 0093833 343.3103  16.4985 14.10677582593902

Sigue SL-3 R/B en tiempo real con AllMySat

Download on the App Store